This demonstration page uses our WeatherBlox Daily Observations layout. Learn more.

Hourly Observations for August 19, 2015

Temp ( °F °C ) Dew Point ( °F °C ) Humidity (%) Winds ( mph kmh ) Pressure ( in mb ) Visibility ( mi km ) Precip ( " mm )
12:15 am 00:15 Clear 54 12 50 10 88 88 NW 5 7 29.91 1013 10 16.09344 0 0
12:35 am 00:35 Clear 52 11 50 10 94 94 NW 5 7 29.97 1015 10 16.09344 0 0
12:55 am 00:55 Clear 52 11 48 9 88 88 NW 6 9 29.97 1015 10 16.09344 0 0
1:15 am 01:15 Clear 52 11 48 9 88 88 NW 5 7 29.97 1015 10 16.09344 0 0
1:35 am 01:35 Clear 52 11 48 9 88 88 WNW 5 7 29.97 1015 10 16.09344 0 0
1:55 am 01:55 Clear 52 11 48 9 88 88 NW 7 11 29.97 1015 10 16.09344 0 0
2:15 am 02:15 Clear 52 11 48 9 88 88 WNW 6 9 29.97 1015 10 16.09344 0 0
2:35 am 02:35 Clear 52 11 48 9 88 88 NW 5 7 29.97 1015 10 16.09344 0 0
2:55 am 02:55 Clear 50 10 48 9 94 94 NW 5 7 29.97 1015 10 16.09344 0 0
3:15 am 03:15 Clear 50 10 48 9 94 94 WNW 5 7 29.97 1015 10 16.09344 0 0
3:35 am 03:35 Clear 50 10 48 9 94 94 WNW 6 9 29.97 1015 10 16.09344 0 0
3:55 am 03:55 Clear 50 10 48 9 94 94 NW 7 11 29.97 1015 10 16.09344 0 0
4:15 am 04:15 Clear 50 10 48 9 94 94 NW 6 9 29.97 1015 10 16.09344 0 0
4:35 am 04:35 Clear 50 10 48 9 94 94 WNW 7 11 29.97 1015 10 16.09344 0 0
4:55 am 04:55 Clear 50 10 48 9 94 94 WNW 6 9 29.97 1015 10 16.09344 0 0
5:15 am 05:15 Clear 52 11 48 9 88 88 WNW 9 15 29.97 1015 10 16.09344 0 0
5:35 am 05:35 Clear 52 11 48 9 88 88 NW 9 15 30 1016 10 16.09344 0 0
5:55 am 05:55 Clear 52 11 48 9 88 88 WNW 8 13 30 1016 10 16.09344 0 0
6:15 am 06:15 Clear 52 11 48 9 88 88 NW 9 15 30 1016 10 16.09344 0 0
6:35 am 06:35 Clear 52 11 50 10 94 94 WNW 8 13 30 1016 10 16.09344 0 0
6:55 am 06:55 Sunny 52 11 50 10 94 94 WNW 10 17 30 1016 10 16.09344 0 0
7:15 am 07:15 Sunny 52 11 50 10 94 94 NW 12 19 30 1016 10 16.09344 0 0
7:35 am 07:35 Sunny 52 11 48 9 88 88 WNW 10 17 30 1016 10 16.09344 0 0
7:55 am 07:55 Sunny 54 12 50 10 88 88 WNW 8 13 30 1016 10 16.09344 0 0
8:15 am 08:15 Sunny 54 12 50 10 88 88 NW 10 17 30.03 1017 10 16.09344 0 0
8:35 am 08:35 Sunny 54 12 50 10 88 88 NW 12 19 30.03 1017 10 16.09344 0 0
8:55 am 08:55 Sunny 55 13 50 10 82 82 NW 9 15 30 1016 10 16.09344 0 0
9:15 am 09:15 Sunny 57 14 50 10 77 77 NW 14 22 30 1016 10 16.09344 0 0
9:35 am 09:35 Sunny 55 13 50 10 82 82 NW 8 13 30 1016 10 16.09344 0 0
9:55 am 09:55 Sunny 59 15 50 10 72 72 NNW 13 20 30 1016 10 16.09344 0 0
10:15 am 10:15 Sunny 59 15 50 10 72 72 NW 10 17 30 1016 10 16.09344 0 0
10:35 am 10:35 Sunny 59 15 50 10 72 72 NNW 12 19 30 1016 10 16.09344 0 0
10:55 am 10:55 Sunny 59 15 50 10 72 72 NW 12 19 30 1016 10 16.09344 0 0
11:15 am 11:15 Sunny 63 17 50 10 64 64 NW 10 17 29.94 1014 10 16.09344 0 0
11:35 am 11:35 Sunny 64 18 50 10 60 60 NNW 9 15 29.94 1014 10 16.09344 0 0
11:55 am 11:55 Sunny 64 18 50 10 60 60 NW 10 17 29.97 1015 10 16.09344 0 0
12:15 pm 12:15 Sunny 64 18 50 10 60 60 NW 12 19 29.94 1014 10 16.09344 0 0
12:35 pm 12:35 Sunny 66 19 52 11 60 60 NW 14 22 29.94 1014 10 16.09344 0 0
12:55 pm 12:55 Sunny 68 20 50 10 53 53 NW 13 20 29.91 1013 10 16.09344 0 0
1:15 pm 13:15 Partly Cloudy 66 19 50 10 56 56 NW 9 15 29.94 1014 10 16.09344 0 0
1:35 pm 13:35 Partly Cloudy 68 20 50 10 53 53 NW 13 20 29.91 1013 10 16.09344 0 0
1:55 pm 13:55 Partly Cloudy 70 21 50 10 50 50 NW 13 20 29.91 1013 10 16.09344 0 0
2:15 pm 14:15 Mostly Cloudy 68 20 52 11 56 56 WNW 10 17 29.91 1013 10 16.09344 0 0
2:35 pm 14:35 Partly Cloudy 70 21 50 10 50 50 WNW 12 19 29.91 1013 10 16.09344 0 0
2:55 pm 14:55 Partly Cloudy 70 21 48 9 46 46 NW 13 20 29.88 1012 10 16.09344 0 0
3:15 pm 15:15 Partly Cloudy 72 22 48 9 44 44 NW 12 19 29.88 1012 10 16.09344 0 0
3:35 pm 15:35 Sunny 72 22 48 9 44 44 NW 9 15 29.88 1012 10 16.09344 0 0
3:55 pm 15:55 Sunny 72 22 48 9 44 44 NW 12 19 29.88 1012 10 16.09344 0 0
4:15 pm 16:15 Partly Cloudy 73 23 46 8 38 38 WNW 9 15 29.85 1011 10 16.09344 0 0
4:35 pm 16:35 Mostly Cloudy 70 21 48 9 46 46 W 14 22 29.88 1012 10 16.09344 0 0
4:55 pm 16:55 Mostly Cloudy 72 22 48 9 44 44 W 15 24 29.88 1012 10 16.09344 0 0
5:15 pm 17:15 Mostly Cloudy 72 22 48 9 44 44 W 13 20 29.88 1012 10 16.09344 0 0
5:35 pm 17:35 Partly Cloudy 72 22 48 9 44 44 WNW 8 13 29.88 1012 10 16.09344 0 0
5:55 pm 17:55 Sunny 72 22 46 8 41 41 WNW 9 15 29.88 1012 10 16.09344 0 0
6:15 pm 18:15 Sunny 72 22 48 9 44 44 WNW 10 17 29.85 1011 10 16.09344 0 0
6:35 pm 18:35 Sunny 72 22 48 9 44 44 WNW 8 13 29.85 1011 10 16.09344 0 0
6:55 pm 18:55 Sunny 72 22 48 9 44 44 WNW 7 11 29.88 1012 10 16.09344 0 0
7:15 pm 19:15 Sunny 70 21 48 9 46 46 WNW 6 9 29.85 1011 10 16.09344 0 0
7:35 pm 19:35 Sunny 68 20 50 10 53 53 W 6 9 29.85 1011 10 16.09344 0 0
7:55 pm 19:55 Sunny 66 19 50 10 56 56 W 6 9 29.85 1011 10 16.09344 0 0
8:15 pm 20:15 Sunny 66 19 50 10 56 56 W 6 9 29.91 1013 10 16.09344 0 0
8:35 pm 20:35 Clear 64 18 52 11 64 64 W 6 9 29.91 1013 10 16.09344 0 0
8:55 pm 20:55 Clear 63 17 52 11 68 68 W 5 7 29.91 1013 10 16.09344 0 0
9:15 pm 21:15 Clear 61 16 52 11 72 72 W 5 7 29.91 1013 10 16.09344 0 0
9:35 pm 21:35 Clear 61 16 52 11 72 72 WSW 6 9 29.91 1013 10 16.09344 0 0
9:55 pm 21:55 Clear 59 15 52 11 77 77 SW 3 6 29.94 1014 10 16.09344 0 0
10:15 pm 22:15 Clear 59 15 52 11 77 77 Calm 29.97 1015 10 16.09344 0 0
10:35 pm 22:35 Clear 59 15 52 11 77 77 SW 3 6 29.97 1015 10 16.09344 0 0
10:55 pm 22:55 Clear 59 15 52 11 77 77 SW 5 7 29.97 1015 10 16.09344 0 0
11:15 pm 23:15 Clear 59 15 50 10 72 72 SW 5 7 29.97 1015 10 16.09344 0 0
11:35 pm 23:35 Clear 59 15 50 10 72 72 SW 3 6 29.94 1014 10 16.09344 0 0
11:55 pm 23:55 Clear 59 15 50 10 72 72 SW 6 9 29.94 1014 10 16.09344 0 0

Powered by AerisWeather